Hourly Weather Roundup
Issued by NWS Central Illinois

Home | Current Version | Previous Version | Text Only | Print | Product List | Glossary On
Versions: 1 2 3 4 5 6 7 8 9 10 11 12 13 14 15 16 17 18 19 20 21 22 23 24 25 26 27 28 29 30 31 32 33 34 35 36 37 38 39 40 41 42 43 44 45 46 47 48 49 50
000
NZUS43 KILX 061210
HWRILX

AREA WEATHER ROUNDUP
NATIONAL WEATHER SERVICE, LINCOLN IL
700 AM CDT WED MAY 06 2015


CITY           SKY/WX    TMP DP  RH WIND       PRES   REMARKS
BLOOMINGTON    MOSUNNY   62  59  90 SE6       30.16R
6HR MIN TEMP:  56; 6HR MAX TEMP:  62;

CHAMPAIGN      CLOUDY    65  57  75 SE6       30.16R
6HR MIN TEMP:  60; 6HR MAX TEMP:  66;

DANVILLE       PTSUNNY   61  55  81 CALM      30.15R
6HR MIN TEMP:  58; 6HR MAX TEMP:  62;

DECATUR        CLOUDY    66  57  72 S6        30.15R
6HR MIN TEMP:  57; 6HR MAX TEMP:  66;

EFFINGHAM      SUNNY     62  55  80 CALM      30.19R
FLORA          SUNNY     58  54  86 CALM      30.17S
6HR MIN TEMP:  54; 6HR MAX TEMP:  64;

GALESBURG      CLOUDY    58  57  96 E7        30.12R FOG
JACKSONVILLE   MOSUNNY   69  57  66 S6        30.13R
6HR MIN TEMP:  67; 6HR MAX TEMP:  72;

LACON          FOG       58  57  97 E3        30.14R VSB 1/2
6HR MIN TEMP:  56; 6HR MAX TEMP:  58;

LAWRENCEVILLE  SUNNY     62  57  83 CALM      30.19R
6HR MIN TEMP:  59; 6HR MAX TEMP:  64;

LITCHFIELD     SUNNY     63  55  77 S5        30.15R
$$


CITY           SKY/WX    TMP DP  RH WIND       PRES   REMARKS
LINCOLN        PTSUNNY   62  58  88 CALM      30.13R
6HR MIN TEMP:  60; 6HR MAX TEMP:  64;

MACOMB         CLOUDY    59  59 100 SE3       30.13R FOG
MATTOON        PTSUNNY   64  55  72 S6        30.16R
6HR MIN TEMP:  61; 6HR MAX TEMP:  68;

MT CARMEL AP   SUNNY     59  52  77 CALM      30.18R
OLNEY-NOBLE AP SUNNY     59  55  88 CALM      30.18S
PARIS          MOSUNNY   64  56  76 SE3       30.18R
6HR MIN TEMP:  59; 6HR MAX TEMP:  65;

PEORIA         MOSUNNY   62  58  86 E6        30.13R FOG
6HR MIN TEMP:  60; 6HR MAX TEMP:  63;

PONTIAC        FOG       62  62 100 E7        30.16R VSB<1/4
RANTOUL        CLOUDY    63  58  81 SE6       30.16S
6HR MIN TEMP:  61; 6HR MAX TEMP:  63;

ROBINSON       SUNNY     57  55  90 CALM      30.19R FOG
6HR MIN TEMP:  54; 6HR MAX TEMP:  63;

SPRINGFIELD    PTSUNNY   68  56  65 S9        30.13R
6HR MIN TEMP:  66; 6HR MAX TEMP:  70;

TAYLORVILLE    MOSUNNY   64  55  72 S6        30.15R
$$

...REGIONAL REPORTS...


CITY           SKY/WX    TMP DP  RH WIND       PRES   REMARKS
CHICAGO O`HARE FOG       49  48  97 NE5       30.18R VSB 1/8
KANKAKEE       FOG       59  59  99 E8        30.17S VSB<1/4
MOLINE         FOG       57  55  93 E9        30.12R VSB 1/4
MOUNT VERNON   SUNNY    N/A N/A N/A CALM      30.17R
PITTSFIELD     SUNNY     63  57  79 SE5       30.13R
QUINCY         MOSUNNY   64  55  72 S7        30.10R
ROCKFORD       FOG       51  50  96 E6        30.20R VSB 1/4
$$


CITY           SKY/WX    TMP DP  RH WIND       PRES   REMARKS
BURLINGTON     MOSUNNY   63  61  93 SE5       30.09R FOG
CEDAR RAPIDS   FOG       56  56 100 E9        30.09R VSB 1/2
DES MOINES     CLOUDY    66  57  72 SE12      30.00R
KIRKSVILLE     PTCLDY    64  56  75 S10       30.06S
OTTUMWA        PTCLDY    63  58  83 SE8       30.05R
ST LOUIS       PTSUNNY   68  55  63 S9        30.13R
$$


CITY           SKY/WX    TMP DP  RH WIND       PRES   REMARKS
TERRE HAUTE    SUNNY     61  55  81 CALM      30.18R
EVANSVILLE     SUNNY     60  56  86 CALM      30.19R
INDIANAPOLIS   MOSUNNY   63  55  75 SE5       30.18R
LAFAYETTE      PTSUNNY   58  57  97 CALM      30.18R FOG
MADISON        CLOUDY    50  48  93 E6        30.18R FOG
MILWAUKEE      FOG       45  43  93 NE6       30.20S VSB 1/2
$$




USA.gov is the U.S. government's official web portal to all federal, state and local government web resources and services.